DW8548 Weather Reports


Display with metric or nautical units.
time (UTC)temp
F
wind
direction
speed
MPH
gust
MPH
rain 1hr
in
rain 24hr
in
rain mn
in
humidity
%
barometer
mb
20260831104613 64 272 2.0 5.0 0.00 0.00 0.00 77 1019.9
20260831103104 64 248 0.0 8.0 0.00 0.00 0.00 77 1019.8
20260831101604 64 259 2.0 8.0 0.00 0.00 0.00 76 1019.7
20260831100124 64 247 2.0 8.0 0.00 0.00 0.00 77 1019.6
20260831094602 64 256 2.0 4.0 0.00 0.00 0.00 78 1019.5
20260831093108 65 273 2.0 8.0 0.00 0.00 0.00 77 1019.3
20260831091604 65 318 1.0 5.0 0.00 0.00 0.00 77 1019.0
20260831090107 66 227 2.0 9.0 0.00 0.00 0.00 74 1018.9
20260831084611 66 255 2.0 7.0 0.00 0.00 0.00 71 1018.8
20260831083106 67 331 2.0 6.0 0.00 0.00 0.00 67 1018.7
20260831081602 68 271 1.0 9.0 0.00 0.00 0.00 66 1018.6
20260831080108 69 244 4.0 10.0 0.00 0.00 0.00 64 1018.8
20260831074605 68 304 2.0 8.0 0.00 0.00 0.00 67 1018.8
20260831073104 68 282 3.0 9.0 0.00 0.00 0.00 69 1018.8
20260831071558 69 266 4.0 11.0 0.00 0.00 0.00 68 1018.9
20260831070115 70 257 3.0 8.0 0.00 0.00 0.00 64 1018.7
20260831064607 70 252 3.0 11.0 0.00 0.00 0.00 66 1018.7
20260831063105 70 246 2.0 9.0 0.00 0.00 0.00 66 1018.6
20260831061604 70 292 3.0 10.0 0.00 0.00 0.00 66 1018.5
20260831060109 71 225 3.0 8.0 0.00 0.00 0.00 67 1018.4
20260831054606 72 291 2.0 6.0 0.00 0.00 0.00 66 1018.3
20260831053112 71 298 3.0 9.0 0.00 0.00 0.00 65 1018.2
20260831051604 70 250 3.0 9.0 0.00 0.00 0.00 68 1018.4
20260831050115 69 261 3.0 11.0 0.00 0.00 0.00 69 1018.5
20260831044612 70 308 2.0 9.0 0.00 0.00 0.00 72 1018.5
20260831043102 70 275 2.0 8.0 0.00 0.00 0.00 71 1018.3
20260831041605 71 337 2.0 8.0 0.00 0.00 0.00 70 1018.3
20260831040107 70 0 2.0 8.0 0.00 0.00 0.00 68 1018.4
20260831034608 70 273 1.0 7.0 0.00 0.00 0.00 72 1018.5
20260831033107 70 246 2.0 6.0 0.00 0.00 0.00 72 1018.6
20260831031604 70 312 1.0 8.0 0.00 0.00 0.00 72 1018.9
20260831030108 68 48 1.0 8.0 0.00 0.00 0.00 75 1018.8
20260831024626 68 327 1.0 6.0 0.00 0.00 0.00 74 1018.8
20260831023110 69 297 2.0 8.0 0.00 0.00 0.00 75 1018.9
20260831021605 67 336 2.0 7.0 0.00 0.00 0.00 76 1018.6
20260831020111 67 327 1.0 7.0 0.00 0.00 0.00 77 1018.6
20260831014624 66 273 1.0 5.0 0.00 0.00 0.00 77 1018.8
20260831013100 67 0 0.0 4.0 0.00 0.00 0.00 78 1018.8
20260831011617 66 304 1.0 4.0 0.00 0.00 0.00 79 1018.9
20260831010104 65 333 1.0 5.0 0.00 0.00 0.00 81 1018.8
20260831004604 64 263 0.0 3.0 0.00 0.00 0.00 86 1018.8
20260831003106 63 268 0.0 3.0 0.00 0.00 0.00 90 1018.8
20260831001605 61 0 0.0 0.0 0.00 0.00 0.00 93 1018.7
20260831000108 60 0 0.0 0.0 0.00 0.00 0.00 94 1018.6
20260830234607 58 0 0.0 0.0 0.00 0.00 0.00 93 1018.5
20260830233107 57 0 0.0 1.0 0.00 0.00 0.00 94 1018.5
20260830231610 56 0 0.0 0.0 0.00 0.00 0.00 93 1018.2
20260830230109 56 0 0.0 0.0 0.00 0.00 0.00 93 1018.2
20260830224635 56 0 0.0 0.0 0.00 0.00 0.00 93 1018.1
20260830223104 56 0 0.0 1.0 0.00 0.00 0.00 94 1018.0
20260830221620 55 0 0.0 0.0 0.00 0.00 0.00 93 1017.8
20260830220134 56 0 0.0 0.0 0.00 0.00 0.00 93 1017.7
20260830214606 56 0 0.0 0.0 0.00 0.00 0.00 93 1017.6
20260830213104 56 0 0.0 0.0 0.00 0.00 0.00 93 1017.4
20260830211605 57 0 0.0 0.0 0.00 0.00 0.00 93 1017.2
20260830210105 56 0 0.0 0.0 0.00 0.00 0.00 93 1017.3
20260830204606 57 0 0.0 0.0 0.00 0.00 0.00 93 1017.2
20260830203105 57 0 0.0 0.0 0.00 0.00 0.00 93 1017.2
20260830201606 57 0 0.0 0.0 0.00 0.00 0.00 93 1017.4
20260830200105 57 0 0.0 0.0 0.00 0.00 0.00 93 1017.6
20260830194610 56 0 0.0 1.0 0.00 0.00 0.00 93 1017.6
20260830193101 56 0 0.0 0.0 0.00 0.00 0.00 92 1017.7
20260830191605 57 0 0.0 0.0 0.00 0.00 0.00 93 1017.7
20260830190104 56 0 0.0 0.0 0.00 0.00 0.00 93 1018.0
20260830184605 56 0 1.0 2.0 0.00 0.00 0.00 92 1017.9
20260830183103 57 0 0.0 0.0 0.00 0.00 0.00 93 1017.7
20260830181600 57 0 0.0 0.0 0.00 0.00 0.00 92 1017.8
20260830180104 56 0 0.0 0.0 0.00 0.00 0.00 93 1017.9
20260830174603 56 0 0.0 0.0 0.00 0.00 0.00 92 1017.9
20260830173107 55 0 0.0 0.0 0.00 0.00 0.00 92 1018.1
20260830171612 55 0 0.0 0.0 0.00 0.00 0.00 92 1018.2
20260830170109 54 0 0.0 0.0 0.00 0.00 0.00 93 1018.2
20260830164612 54 0 0.0 0.0 0.00 0.00 0.00 92 1018.2
20260830163100 54 0 0.0 1.0 0.00 0.00 0.00 92 1018.3
20260830161614 55 0 0.0 0.0 0.00 0.00 0.00 92 1018.2
20260830160107 54 0 0.0 0.0 0.00 0.00 0.00 91 1018.3
20260830154608 55 0 0.0 0.0 0.00 0.00 0.00 92 1018.4
20260830153102 55 0 0.0 0.0 0.00 0.00 0.00 92 1018.5
20260830151608 55 0 0.0 0.0 0.00 0.00 0.00 91 1018.5
20260830150105 56 0 0.0 0.0 0.00 0.00 0.00 91 1018.6
20260830144607 56 0 0.0 0.0 0.00 0.00 0.00 91 1018.6
20260830143114 56 0 0.0 2.0 0.00 0.00 0.00 91 1018.7
20260830141609 57 0 0.0 0.0 0.00 0.00 0.00 91 1018.5
20260830140109 57 0 0.0 0.0 0.00 0.00 0.00 90 1018.5
20260830134607 57 0 0.0 0.0 0.00 0.00 0.00 90 1018.6
20260830133104 58 0 0.0 0.0 0.00 0.00 0.00 90 1018.7
20260830131606 58 0 0.0 0.0 0.00 0.00 0.00 90 1018.8
20260830130110 58 0 0.0 1.0 0.00 0.00 0.00 89 1018.8
20260830124559 59 0 0.0 0.0 0.00 0.00 0.00 89 1018.8
20260830123127 60 0 0.0 0.0 0.00 0.00 0.00 88 1018.8
20260830121608 60 0 0.0 1.0 0.00 0.00 0.00 89 1018.7
20260830120105 61 0 0.0 0.0 0.00 0.00 0.00 88 1018.7
20260830114610 61 0 0.0 0.0 0.00 0.00 0.00 88 1018.7
20260830113104 62 0 0.0 0.0 0.00 0.00 0.00 87 1018.7
20260830111602 62 0 0.0 0.0 0.00 0.00 0.00 86 1018.7
20260830110105 63 0 0.0 1.0 0.00 0.00 0.00 85 1018.6